Location: Bastelaar
(51.0950°N, 3.8602°E)
Time: 01:37:30
(UTC+00:00)

USA 215 - Pass Details

Date: 18 November 2025
Orbit: 1101 x 1106 km, 123.0° (Epoch: 12 December)

Event Time Altitude Azimuth Distance (km) Brightness Sun altitude
Rises 17:46:29 0° 145° (SE) 3,911 5.9 -17.6°
Reaches altitude 10° 17:49:05 10° 152° (SSE) 2,957 5.3 -18.0°
Maximum altitude 17:55:18 45° 224° (SW) 1,467 4.3 -18.9°
Drops below altitude 10° 18:01:33 10° 296° (WNW) 2,972 6.4 -19.9°
Sets 18:04:11 0° 302° (WNW) 3,934 7.0 -20.3°
